| time (UTC) | temp C | wind direction | speed KPH | gust KPH | rain 1hr cm | rain 24hr cm | rain mn cm | humidity % | barometer mb |
| 20260510020052 | 15 | 335 | 1.6 | 6.4 | 0.00 | 0.00 | 0.00 | 68 | 1010.8 |
| 20260510014553 | 15 | 355 | 1.6 | 14.5 | 0.00 | 0.00 | 0.00 | 67 | 1010.8 |
| 20260510013050 | 15 | 332 | 1.6 | 9.7 | 0.00 | 0.00 | 0.00 | 67 | 1010.9 |
| 20260510011552 | 15 | 342 | 1.6 | 8.0 | 0.00 | 0.00 | 0.00 | 67 | 1011.0 |
| 20260510010050 | 15 | 23 | 1.6 | 12.9 | 0.00 | 0.00 | 0.00 | 67 | 1011.2 |
| 20260510004550 | 15 | 317 | 3.2 | 9.7 | 0.00 | 0.00 | 0.00 | 66 | 1011.4 |
| 20260510003100 | 16 | 319 | 0.0 | 6.4 | 0.00 | 0.00 | 0.00 | 66 | 1011.5 |
| 20260510001549 | 16 | 0 | 1.6 | 12.9 | 0.00 | 0.00 | 0.00 | 65 | 1011.7 |
| 20260510000055 | 16 | 332 | 4.8 | 14.5 | 0.00 | 0.00 | 0.00 | 65 | 1011.9 |
| 20260509234557 | 16 | 340 | 3.2 | 12.9 | 0.00 | 0.00 | 0.00 | 65 | 1012.0 |
| 20260509233101 | 16 | 343 | 3.2 | 11.3 | 0.00 | 0.00 | 0.00 | 64 | 1012.2 |
| 20260509231554 | 17 | 306 | 1.6 | 12.9 | 0.00 | 0.00 | 0.00 | 63 | 1012.3 |
| 20260509230053 | 17 | 355 | 1.6 | 8.0 | 0.00 | 0.00 | 0.00 | 63 | 1012.3 |
| 20260509224550 | 17 | 319 | 3.2 | 14.5 | 0.00 | 0.00 | 0.00 | 62 | 1012.4 |
| 20260509223057 | 17 | 337 | 1.6 | 9.7 | 0.00 | 0.00 | 0.00 | 62 | 1012.4 |
| 20260509221547 | 17 | 38 | 1.6 | 8.0 | 0.00 | 0.00 | 0.00 | 62 | 1012.4 |
| 20260509220056 | 17 | 46 | 1.6 | 8.0 | 0.00 | 0.00 | 0.00 | 62 | 1012.3 |
| 20260509214553 | 18 | 0 | 1.6 | 9.7 | 0.00 | 0.00 | 0.00 | 62 | 1012.5 |
| 20260509213051 | 18 | 61 | 3.2 | 9.7 | 0.00 | 0.00 | 0.00 | 63 | 1012.5 |
| 20260509211550 | 18 | 23 | 1.6 | 12.9 | 0.00 | 0.00 | 0.00 | 64 | 1012.6 |
| 20260509210053 | 18 | 13 | 0.0 | 9.7 | 0.00 | 0.00 | 0.00 | 64 | 1012.5 |
| 20260509204556 | 18 | 13 | 1.6 | 17.7 | 0.00 | 0.00 | 0.00 | 64 | 1012.4 |
| 20260509203049 | 18 | 340 | 1.6 | 8.0 | 0.00 | 0.00 | 0.00 | 63 | 1012.4 |
| 20260509201604 | 18 | 34 | 1.6 | 4.8 | 0.00 | 0.00 | 0.00 | 63 | 1012.3 |
| 20260509200108 | 19 | 21 | 1.6 | 4.8 | 0.00 | 0.00 | 0.00 | 63 | 1012.2 |
| 20260509194554 | 19 | 42 | 0.0 | 6.4 | 0.00 | 0.00 | 0.00 | 62 | 1012.2 |
| 20260509193111 | 20 | 41 | 0.0 | 6.4 | 0.00 | 0.00 | 0.00 | 61 | 1012.1 |
| 20260509191552 | 20 | 0 | 1.6 | 6.4 | 0.00 | 0.00 | 0.00 | 60 | 1011.9 |
| 20260509190051 | 20 | 23 | 0.0 | 6.4 | 0.00 | 0.00 | 0.00 | 59 | 1011.9 |
| 20260509184604 | 20 | 116 | 0.0 | 9.7 | 0.00 | 0.00 | 0.00 | 57 | 1011.8 |
| 20260509183056 | 20 | 352 | 1.6 | 6.4 | 0.00 | 0.00 | 0.00 | 56 | 1011.7 |
| 20260509181553 | 21 | 346 | 1.6 | 11.3 | 0.00 | 0.00 | 0.00 | 55 | 1011.6 |
| 20260509180050 | 21 | 0 | 1.6 | 9.7 | 0.00 | 0.00 | 0.00 | 55 | 1011.6 |
| 20260509174549 | 21 | 22 | 3.2 | 12.9 | 0.00 | 0.00 | 0.00 | 54 | 1011.8 |
| 20260509173104 | 21 | 30 | 1.6 | 12.9 | 0.00 | 0.00 | 0.00 | 54 | 1011.7 |
| 20260509171618 | 21 | 24 | 0.0 | 11.3 | 0.00 | 0.00 | 0.00 | 54 | 1011.8 |
| 20260509170053 | 21 | 71 | 1.6 | 8.0 | 0.00 | 0.00 | 0.00 | 53 | 1011.9 |
| 20260509164556 | 21 | 28 | 3.2 | 11.3 | 0.00 | 0.00 | 0.00 | 54 | 1011.9 |
| 20260509163102 | 22 | 22 | 1.6 | 12.9 | 0.00 | 0.00 | 0.00 | 53 | 1011.9 |
| 20260509161555 | 22 | 29 | 3.2 | 8.0 | 0.00 | 0.00 | 0.00 | 52 | 1012.0 |
| 20260509160051 | 22 | 136 | 3.2 | 19.3 | 0.00 | 0.00 | 0.00 | 49 | 1011.9 |
| 20260509154553 | 22 | 0 | 4.8 | 12.9 | 0.00 | 0.00 | 0.00 | 53 | 1012.0 |
| 20260509153057 | 21 | 130 | 1.6 | 8.0 | 0.00 | 0.00 | 0.00 | 53 | 1012.2 |
| 20260509151558 | 22 | 355 | 3.2 | 12.9 | 0.00 | 0.00 | 0.00 | 54 | 1012.4 |
| 20260509150105 | 22 | 121 | 3.2 | 14.5 | 0.00 | 0.00 | 0.00 | 55 | 1012.5 |
| 20260509144659 | 21 | 360 | 1.6 | 9.7 | 0.00 | 0.00 | 0.00 | 56 | 1012.5 |
| 20260509143055 | 21 | 40 | 3.2 | 14.5 | 0.00 | 0.00 | 0.00 | 53 | 1012.5 |
| 20260509141554 | 21 | 323 | 1.6 | 8.0 | 0.00 | 0.00 | 0.00 | 53 | 1012.5 |
| 20260509140052 | 22 | 55 | 1.6 | 12.9 | 0.00 | 0.00 | 0.00 | 55 | 1012.6 |
| 20260509134550 | 21 | 76 | 3.2 | 16.1 | 0.00 | 0.00 | 0.00 | 54 | 1012.3 |
| 20260509133051 | 22 | 22 | 3.2 | 12.9 | 0.00 | 0.00 | 0.00 | 54 | 1012.7 |
| 20260509131550 | 22 | 344 | 4.8 | 20.9 | 0.00 | 0.00 | 0.00 | 54 | 1012.7 |
| 20260509124604 | 22 | 352 | 6.4 | 16.1 | 0.00 | 0.00 | 0.00 | 52 | 1012.8 |
| 20260509123048 | 22 | 61 | 3.2 | 14.5 | 0.00 | 0.00 | 0.00 | 52 | 1013.1 |
| 20260509121553 | 22 | 81 | 3.2 | 14.5 | 0.00 | 0.00 | 0.00 | 54 | 1013.3 |
| 20260509114551 | 22 | 17 | 3.2 | 14.5 | 0.00 | 0.00 | 0.00 | 56 | 1013.5 |
| 20260509113052 | 21 | 330 | 3.2 | 14.5 | 0.00 | 0.00 | 0.00 | 55 | 1013.7 |
| 20260509111552 | 21 | 344 | 3.2 | 14.5 | 0.00 | 0.00 | 0.00 | 56 | 1013.9 |
| 20260509110053 | 21 | 18 | 0.0 | 16.1 | 0.00 | 0.00 | 0.00 | 55 | 1014.0 |
| 20260509104548 | 21 | 0 | 3.2 | 14.5 | 0.00 | 0.00 | 0.00 | 56 | 1014.1 |
| 20260509103051 | 20 | 0 | 1.6 | 11.3 | 0.00 | 0.00 | 0.00 | 59 | 1014.1 |
| 20260509101552 | 20 | 355 | 1.6 | 16.1 | 0.00 | 0.00 | 0.00 | 61 | 1014.2 |
| 20260509100056 | 20 | 9 | 3.2 | 12.9 | 0.00 | 0.00 | 0.00 | 62 | 1014.3 |
| 20260509094553 | 19 | 332 | 1.6 | 8.0 | 0.00 | 0.00 | 0.00 | 63 | 1014.3 |
| 20260509093051 | 18 | 67 | 4.8 | 9.7 | 0.00 | 0.00 | 0.00 | 62 | 1014.5 |
| 20260509091552 | 18 | 355 | 3.2 | 9.7 | 0.00 | 0.00 | 0.00 | 65 | 1014.5 |
| 20260509084559 | 17 | 355 | 1.6 | 11.3 | 0.00 | 0.00 | 0.00 | 66 | 1014.4 |
| 20260509083104 | 17 | 32 | 3.2 | 8.0 | 0.00 | 0.00 | 0.00 | 65 | 1014.6 |
| 20260509081552 | 17 | 78 | 1.6 | 6.4 | 0.00 | 0.00 | 0.00 | 65 | 1014.8 |
| 20260509080057 | 17 | 64 | 3.2 | 11.3 | 0.00 | 0.00 | 0.00 | 67 | 1014.7 |
| 20260509074550 | 16 | 0 | 1.6 | 8.0 | 0.00 | 0.00 | 0.00 | 67 | 1014.8 |
| 20260509073057 | 16 | 360 | 1.6 | 6.4 | 0.00 | 0.00 | 0.00 | 68 | 1014.9 |
| 20260509071557 | 15 | 19 | 1.6 | 9.7 | 0.00 | 0.00 | 0.00 | 69 | 1015.0 |
| 20260509070057 | 15 | 53 | 1.6 | 8.0 | 0.00 | 0.00 | 0.00 | 70 | 1014.9 |
| 20260509064605 | 15 | 0 | 0.0 | 8.0 | 0.00 | 0.00 | 0.00 | 72 | 1015.0 |
| 20260509063052 | 13 | 31 | 3.2 | 8.0 | 0.00 | 0.00 | 0.00 | 73 | 1015.1 |
| 20260509061558 | 13 | 26 | 1.6 | 4.8 | 0.00 | 0.00 | 0.00 | 75 | 1015.0 |
| 20260509060104 | 12 | 0 | 1.6 | 3.2 | 0.00 | 0.00 | 0.00 | 77 | 1015.0 |
| 20260509054605 | 12 | 0 | 0.0 | 4.8 | 0.00 | 0.00 | 0.00 | 77 | 1014.9 |
| 20260509053059 | 12 | 0 | 0.0 | 3.2 | 0.00 | 0.00 | 0.00 | 80 | 1014.9 |
| 20260509051556 | 11 | 303 | 1.6 | 3.2 | 0.00 | 0.00 | 0.00 | 82 | 1014.5 |
| 20260509050057 | 10 | 0 | 0.0 | 3.2 | 0.00 | 0.00 | 0.00 | 84 | 1014.5 |
| 20260509044552 | 10 | 0 | 0.0 | 3.2 | 0.00 | 0.00 | 0.00 | 85 | 1014.4 |
| 20260509043049 | 10 | 0 | 1.6 | 3.2 | 0.00 | 0.00 | 0.00 | 85 | 1014.3 |
| 20260509041548 | 10 | 0 | 0.0 | 1.6 | 0.00 | 0.00 | 0.00 | 84 | 1014.6 |
| 20260509040057 | 10 | 0 | 0.0 | 3.2 | 0.00 | 0.00 | 0.00 | 84 | 1014.6 |
| 20260509034600 | 10 | 0 | 0.0 | 3.2 | 0.00 | 0.00 | 0.00 | 84 | 1014.6 |
| 20260509033050 | 10 | 0 | 0.0 | 4.8 | 0.00 | 0.00 | 0.00 | 84 | 1014.5 |
| 20260509031559 | 10 | 0 | 0.0 | 3.2 | 0.00 | 0.00 | 0.00 | 83 | 1014.7 |
| 20260509030051 | 10 | 0 | 0.0 | 8.0 | 0.00 | 0.00 | 0.00 | 83 | 1014.8 |
| 20260509024548 | 10 | 0 | 0.0 | 1.6 | 0.00 | 0.00 | 0.00 | 83 | 1014.9 |
| 20260509023056 | 10 | 0 | 0.0 | 0.0 | 0.00 | 0.00 | 0.00 | 82 | 1014.9 |
| 20260509021553 | 10 | 0 | 0.0 | 1.6 | 0.00 | 0.00 | 0.00 | 82 | 1014.9 |